Regional Weather Roundup
Issued by NWS

Home | Current Version | Previous Version | Text Only | Print | Product List | Glossary Off
Versions: 1 2 3 4 5 6 7 8 9 10 11 12 13 14 15 16 17 18 19 20 21 22 23 24 25 26 27 28 29 30 31 32 33 34 35 36 37 38 39 40 41 42 43 44 45 46 47 48 49 50

000
ASUS43 KIND 231100
RWRIN

WEATHER ROUNDUP FOR INDIANA
NATIONAL WEATHER SERVICE INDIANAPOLIS IN
700 AM EDT WED AUG 23 2017

NOTE: "FAIR" INDICATES FEW OR NO CLOUDS BELOW 12,000 FEET WITH NO
SIGNIFICANT WEATHER AND/OR OBSTRUCTIONS TO VISIBILITY.

* - STATION DOES NOT REPORT WEATHER SUCH AS PRECIPITATION OR FOG.

+ - STATION NOT QUALITY CONTROLLED BY THE NATIONAL WEATHER SERVICE.
    USE DATA WITH CAUTION...ESPECIALLY DEWPOINT AND RELATIVE
    HUMIDITY OBSERVATIONS.

INZ001>003-010>013-019-020-231200-
NORTHWEST INDIANA

CITY           SKY/WX    TMP DP  RH WIND       PRES   REMARKS
GARY /AIRPORT/ CLEAR     54  52  94 W7        30.03R
MICHIGAN CITY+ CLEAR     64  52  63 NW3       30.02R
MONTICELLO +   PTCLDY    55  54  95 W5        30.02R
RENSSELAER +   CLEAR     54  50  87 W5        30.03S

$$

LMZ046-743>745-231200-
SOUTHERN LAKE MICHIGAN

STATION/POSITION TIME  TEMP    WIND        PRES    WAVE
                       AIR SEA DIR/SP/G            HT
                 (UTC) (F)     (DEG/KT/KT) (MB)    (FT)
BURNS HARBOR     1040   69     310/ 12/ 14 1016.6R
MICHIGAN CITY    1030   69     310/ 14/ 16   N/A
5NW MICH CITY    1050   70 73  320/ 14/ 17   N/A     5

$$

INZ004-005-014>016-021>024-231200-
NORTH CENTRAL INDIANA

CITY           SKY/WX    TMP DP  RH WIND       PRES   REMARKS
ELKHART        CLEAR     55  52  88 W5        30.00
GOSHEN         CLEAR     55  51  86 CALM      29.99R
PERU/GRISSOM   CLEAR     57  57 100 W6        30.01R
SOUTH BEND     CLEAR     54  54 100 W6        30.01R

$$

INZ006>009-017-018-025>027-231200-
NORTHEAST INDIANA

CITY           SKY/WX    TMP DP  RH WIND       PRES   REMARKS
FORT WAYNE     PTCLDY    56  54  93 W6        30.00R

$$

INZ028-029-035-036-043>045-051>053-231200-
WEST CENTRAL INDIANA

CITY           SKY/WX    TMP DP  RH WIND       PRES   REMARKS
LAFAYETTE      CLEAR     55  55 100 W3        30.03R
TERRE HAUTE    CLEAR     57  54  89 NW3       30.04R

$$

INZ030>032-037>040-046>048-054>057-064-065-231200-
CENTRAL INDIANA

CITY           SKY/WX    TMP DP  RH WIND       PRES   REMARKS
COLUMBUS       CLEAR     59  57  94 CALM      30.02
GREENWOOD *+   CLEAR    N/A N/A N/A CALM      30.03R
INDIANAPOLIS   PTCLDY    59  56  89 NW6       30.02R
-EAGLE CREEK   MOCLDY    61  57  87 NW5       30.02R
KOKOMO +       CLEAR     57  56  96 W6        30.02S
MT COMFORT *+  MOCLDY    57  55  94 CALM      30.02S
SHELBYVILLE    CLEAR     58  55  90 CALM      30.01R FOG

$$

INZ033-034-041-042-049-050-058-059-231200-
EAST CENTRAL INDIANA

CITY           SKY/WX    TMP DP  RH WIND       PRES   REMARKS
MUNCIE         PTCLDY    54  52  93 CALM      30.01R
RICHMOND +     PTCLDY    55  55 100 NW3       30.02R FOG

$$

INZ060-061-067>069-081>083-085>088-231200-
SOUTHWEST INDIANA

CITY           SKY/WX    TMP DP  RH WIND       PRES   REMARKS
EVANSVILLE     CLEAR     62  58  86 NW5       30.04R
HUNTINGBURG +  CLEAR     59  57  93 MISG      30.03R

$$

INZ062-063-066-070>080-084-089>092-231200-
SOUTH CENTRAL AND SOUTHEAST INDIANA

CITY           SKY/WX    TMP DP  RH WIND       PRES   REMARKS
BLOOMINGTON    PTCLDY    57  54  89 CALM      30.03R
MADISON *+       N/A     61  59  94 CALM      30.03R VSB 1
SEYMOUR +      PTCLDY    61  59  94 CALM      30.01R

$$





USA.gov is the U.S. government's official web portal to all federal, state and local government web resources and services.